Content
SEND FEEDBACK

Daily
Averages
Monthly
Summary
United States of America

LAKE PARSONS, KANSAS


Home > North America > United States > Kansas
Elevation: 980 feet     Latitude: 37 28N     Longitude: 095 21W

WEATHER
 
SELECT A DAY
Number of Records: 184,623;   Date Range: 7/1/96 - 8/28/14
 
SHARE

PRINT THIS DATA

[ ← Previous Day ]
WEATHER ALMANAC - JANUARY 3, 2013
[ Next Day → ]
[ °C ]   °F
Weather ElementAverageHighLow
Temperature25.3 °F42.1 °F (1:52 pm)12.2 °F (7:15 am)
Dewpoint18.6 °F27 °F (10:52 am)8.6 °F (7:15 am)
Humidity77.4 %92 % (2:52 am)51 % (1:52 pm)
Barometer30.43 in30.48 in (10:52 am)30.34 in (2:52 am)
Wind Speed2.9 mph10.4 mph (1:52 pm)
Weather ElementAverage
Visibility8.7 mi
Wind DirectionSSE (143.8 °)

Weather ElementTotal
Precipitation---
Heating Degree Days37.9 (Base 65)
Averaged from 24 records on January 3, 2013
WEATHER CONDITIONS BREAKOUT
WIND DIRECTION BREAKOUT
WEATHER BY HOUR - JANUARY 3, 2013
[ °C ]   °F
Local TimeTemperatureDewpointHumidityBarometerVisibilityWind DirectionWind SpeedGust SpeedPrecipitationEventsConditions
2:52 AM17.1 °F15.1 °F92 %30.34 in7.0 miNNW (330°)4.6 mphClear
3:52 AM16.0 °F14.0 °F92 %30.36 in6.0 miCalmClear
4:52 AM16.0 °F12.9 °F88 %30.38 in8.0 miCalmClear
5:52 AM15.1 °F10.9 °F84 %30.40 in8.0 miCalmClear
6:52 AM14.0 °F10.9 °F88 %30.42 in7.0 miCalmClear
7:15 AM12.2 °F8.6 °F85 %30.38 in7.0 miCalmScattered Clouds
7:28 AM14.0 °F10.4 °F86 %30.39 in7.0 miCalmMostly Cloudy
7:52 AM14.0 °F10.0 °F84 %30.43 in7.0 miCalmMostly Cloudy
7:59 AM14.0 °F10.4 °F86 %30.40 in7.0 miCalmPartly Cloudy
8:52 AM24.1 °F21.0 °F88 %30.45 in6.0 miCalmClear
9:52 AM30.9 °F26.1 °F82 %30.47 in10.0 miNW (320°)3.5 mphClear
10:52 AM37.0 °F27.0 °F67 %30.48 in10.0 miCalmClear
11:52 AM39.9 °F25.0 °F55 %30.45 in10.0 miWNW (290°)9.2 mphClear
12:52 PM39.9 °F26.1 °F58 %30.43 in10.0 miWest (280°)5.8 mphClear
1:52 PM42.1 °F25.0 °F51 %30.41 in10.0 miNW (310°)10.4 mphMostly Cloudy
2:52 PM41.0 °F26.1 °F55 %30.42 in10.0 miNNW (330°)9.2 mphClear
3:52 PM37.0 °F26.1 °F65 %30.43 in10.0 miNNW (330°)9.2 mphOvercast
4:52 PM35.1 °F25.0 °F67 %30.45 in10.0 miNNW (330°)5.8 mphOvercast
5:52 PM33.1 °F24.1 °F70 %30.46 in10.0 miWNW (290°)3.5 mphOvercast
6:52 PM28.9 °F21.9 °F75 %30.47 in10.0 miNW (320°)4.6 mphMostly Cloudy
7:52 PM26.1 °F21.0 °F81 %30.48 in10.0 miNW (320°)4.6 mphClear
8:52 PM21.9 °F19.0 °F89 %30.48 in10.0 miCalmClear
9:52 PM19.9 °F16.0 °F85 %30.47 in10.0 miCalmClear
10:52 PM18.0 °F14.0 °F84 %30.47 in9.0 miCalmClear
Hourly data recorded from KPPF, located miles away from Lake Parsons, Kansas







STORIES FROM OUR PARTNERS